Crosby, ND

6:38 AM CDT on May 30, 2017 (GMT -0500)
Crosby

Weather History for KD50 - October, 2011

Change the Weather History Date:

Friday, October 28, 2011

  Actual Average (KISN) Record (KISN)
Temperature  
Mean Temperature 38 °F -  
Max Temperature 48 °F 50 °F 80 °F (1937)
Min Temperature 28 °F 28 °F 2 °F (1925)
Degree Days  
Heating Degree Days 27    
Moisture  
Dew Point 23 °F    
Average Humidity 57    
Maximum Humidity 74    
Minimum Humidity 34    
Precipitation  
Precipitation 0.00 in - - ()
Sea Level Pressure  
Sea Level Pressure 30.08 in    
Wind  
Wind Speed 11 mph (West)    
Max Wind Speed 14 mph    
Max Gust Speed 20 mph    
Visibility 10 miles    
Events      
Averages and records for this station are not official NWS values.
T = Trace of Precipitation, MM = Missing Value Source: NWS Daily Summary

Daily Weather History Graph

Daily Weather History Graph

Search for Another Location

Airport or City:

Trip Planner

Search our weather history database for the weather conditions in past years. The results will help you decide how hot, cold, wet, or windy it might be!

Date:

Astronomy

Oct. 28, 2011 Rise Set
Actual Time 8:33 AM CDT 6:39 PM CDT
Civil Twilight 8:00 AM CDT 7:12 PM CDT
Nautical Twilight 7:23 AM CDT 7:49 PM CDT
Astronomical Twilight 6:47 AM CDT 8:25 PM CDT
Moon 11:07 AM CDT (10/28) 7:48 PM CDT (10/28)
Length of Visible Light 11h 11m
Length of Day
10h 06m
Waxing Crescent, 5% of the Moon is Illuminated
Oct 28
Waxing Crescent
Nov 2
First Quarter
Nov 10
Full
Nov 18
Last Quarter
Nov 25
New

Hourly Weather History & Observations

Time (CDT) Temp. Windchill Dew Point Humidity Pressure Visibility Wind Dir Wind Speed Gust Speed Precip Events Conditions
12:15 AM 35.6 °F 27.5 °F 23.0 °F 60% 30.03 in 10.0 mi West 11.5 mph - N/A   Clear
12:35 AM 35.6 °F 26.6 °F 23.0 °F 60% 30.04 in 10.0 mi West 13.8 mph - N/A   Clear
12:55 AM 35.6 °F 27.5 °F 23.0 °F 60% 30.04 in 10.0 mi West 11.5 mph 18.4 mph N/A   Clear
1:15 AM 35.6 °F 27.1 °F 23.0 °F 60% 30.05 in 10.0 mi West 12.7 mph - N/A   Clear
1:35 AM 33.8 °F 24.8 °F 23.0 °F 65% 30.05 in 10.0 mi West 12.7 mph - N/A   Clear
1:55 AM 32.0 °F 23.6 °F 23.0 °F 69% 30.06 in 10.0 mi West 10.4 mph - N/A   Clear
2:15 AM 32.0 °F 22.5 °F 23.0 °F 69% 30.06 in 10.0 mi West 12.7 mph - N/A   Clear
2:35 AM 32.0 °F 23.0 °F 23.0 °F 69% 30.07 in 10.0 mi West 11.5 mph - N/A   Clear
2:55 AM 32.0 °F 23.0 °F 23.0 °F 69% 30.07 in 10.0 mi West 11.5 mph - N/A   Clear
3:15 AM 32.0 °F 23.0 °F 23.0 °F 69% 30.07 in 10.0 mi West 11.5 mph - N/A   Clear
3:35 AM 32.0 °F 23.0 °F 23.0 °F 69% 30.08 in 10.0 mi West 11.5 mph - N/A   Clear
3:55 AM 32.0 °F 23.6 °F 23.0 °F 69% 30.08 in 10.0 mi West 10.4 mph - N/A   Clear
4:15 AM 32.0 °F 23.0 °F 23.0 °F 69% 30.08 in 10.0 mi West 11.5 mph - N/A   Clear
4:35 AM 32.0 °F 23.0 °F 23.0 °F 69% 30.08 in 10.0 mi West 11.5 mph - N/A   Clear
4:55 AM 32.0 °F 22.5 °F 23.0 °F 69% 30.08 in 10.0 mi West 12.7 mph - N/A   Clear
5:15 AM 32.0 °F 22.1 °F 23.0 °F 69% 30.09 in 10.0 mi West 13.8 mph 19.6 mph N/A   Clear
5:35 AM 32.0 °F 22.5 °F 23.0 °F 69% 30.09 in 10.0 mi West 12.7 mph - N/A   Clear
5:55 AM 32.0 °F 22.5 °F 23.0 °F 69% 30.09 in 10.0 mi West 12.7 mph - N/A   Clear
6:15 AM 32.0 °F 23.0 °F 21.2 °F 64% 30.10 in 10.0 mi West 11.5 mph - N/A   Clear
6:35 AM 32.0 °F 23.6 °F 21.2 °F 64% 30.10 in 10.0 mi West 10.4 mph - N/A   Clear
6:55 AM 30.2 °F 20.8 °F 21.2 °F 69% 30.10 in 10.0 mi West 11.5 mph - N/A   Clear
7:15 AM 30.2 °F 21.3 °F 21.2 °F 69% 30.10 in 10.0 mi West 10.4 mph - N/A   Clear
7:35 AM 30.2 °F 22.6 °F 21.2 °F 69% 30.10 in 10.0 mi West 8.1 mph - N/A   Clear
7:55 AM 30.2 °F 20.8 °F 21.2 °F 69% 30.10 in 10.0 mi West 11.5 mph - N/A   Clear
8:15 AM 28.4 °F 21.2 °F 21.2 °F 74% 30.11 in 10.0 mi West 6.9 mph - N/A   Clear
8:35 AM 30.2 °F 21.9 °F 21.2 °F 69% 30.12 in 10.0 mi West 9.2 mph - N/A   Clear
8:55 AM 30.2 °F 21.3 °F 21.2 °F 69% 30.12 in 10.0 mi West 10.4 mph - N/A   Clear
9:15 AM 32.0 °F 23.6 °F 21.2 °F 64% 30.13 in 10.0 mi West 10.4 mph - N/A   Clear
9:35 AM 32.0 °F 22.5 °F 21.2 °F 64% 30.13 in 10.0 mi West 12.7 mph - N/A   Clear
9:55 AM 33.8 °F 25.8 °F 21.2 °F 60% 30.13 in 10.0 mi West 10.4 mph - N/A   Clear
10:15 AM 35.6 °F 27.1 °F 23.0 °F 60% 30.13 in 10.0 mi West 12.7 mph - N/A   Clear
10:35 AM 35.6 °F 28.0 °F 23.0 °F 60% 30.13 in 10.0 mi West 10.4 mph - N/A   Clear
10:55 AM 37.4 °F 30.8 °F 23.0 °F 56% 30.14 in 10.0 mi West 9.2 mph - N/A   Clear
11:15 AM 39.2 °F 32.5 °F 23.0 °F 52% 30.13 in 10.0 mi West 10.4 mph - N/A   Clear
11:35 AM 39.2 °F 32.5 °F 23.0 °F 52% 30.13 in 10.0 mi West 10.4 mph - N/A   Clear
11:55 AM 41.0 °F 35.8 °F 24.8 °F 53% 30.12 in 10.0 mi West 8.1 mph - N/A   Clear
12:15 PM 41.0 °F 33.9 °F 24.8 °F 53% 30.12 in 10.0 mi West 12.7 mph - N/A   Clear
12:35 PM 42.8 °F 37.0 °F 24.8 °F 49% 30.12 in 10.0 mi West 10.4 mph - N/A   Clear
12:55 PM 44.6 °F 39.2 °F 24.8 °F 46% 30.12 in 10.0 mi West 10.4 mph - N/A   Clear
1:15 PM 44.6 °F 39.2 °F 24.8 °F 46% 30.12 in 10.0 mi WNW 10.4 mph - N/A   Clear
1:35 PM 44.6 °F 39.2 °F 24.8 °F 46% 30.11 in 10.0 mi WNW 10.4 mph - N/A   Clear
1:55 PM 46.4 °F 41.5 °F 24.8 °F 43% 30.10 in 10.0 mi NW 10.4 mph - N/A   Clear
2:15 PM 46.4 °F 41.1 °F 24.8 °F 43% 30.09 in 10.0 mi West 11.5 mph 16.1 mph N/A   Clear
2:35 PM 46.4 °F 42.9 °F 24.8 °F 43% 30.08 in 10.0 mi WSW 6.9 mph - N/A   Clear
2:55 PM 46.4 °F 41.5 °F 23.0 °F 40% 30.08 in 10.0 mi WNW 10.4 mph - N/A   Clear
3:15 PM 48.2 °F - 23.0 °F 37% 30.07 in 10.0 mi West 9.2 mph 16.1 mph N/A   Clear
3:35 PM 48.2 °F - 21.2 °F 34% 30.07 in 10.0 mi West 9.2 mph - N/A   Clear
3:55 PM 48.2 °F - 23.0 °F 37% 30.07 in 10.0 mi West 9.2 mph - N/A   Clear
4:15 PM 48.2 °F - 21.2 °F 34% 30.06 in 10.0 mi West 5.8 mph - N/A   Clear
4:35 PM 46.4 °F 42.9 °F 19.4 °F 34% 30.06 in 10.0 mi West 6.9 mph - N/A   Clear
4:55 PM 46.4 °F 43.5 °F 23.0 °F 40% 30.05 in 10.0 mi WSW 5.8 mph - N/A   Clear
5:15 PM 46.4 °F 44.3 °F 24.8 °F 43% 30.05 in 10.0 mi SSW 4.6 mph - N/A   Clear
5:35 PM 44.6 °F 41.4 °F 26.6 °F 49% 30.04 in 10.0 mi SSW 5.8 mph - N/A   Clear
5:55 PM 44.6 °F 42.2 °F 26.6 °F 49% 30.04 in 10.0 mi SSW 4.6 mph - N/A   Clear
6:15 PM 41.0 °F 37.1 °F 26.6 °F 57% 30.03 in 10.0 mi South 5.8 mph - N/A   Clear
6:35 PM 41.0 °F 38.0 °F 24.8 °F 53% 30.02 in 10.0 mi SSE 4.6 mph - N/A   Clear
6:55 PM 39.2 °F 35.0 °F 24.8 °F 56% 30.02 in 10.0 mi SSE 5.8 mph - N/A   Clear
7:15 PM 39.2 °F 34.2 °F 24.8 °F 56% 30.01 in 10.0 mi SSE 6.9 mph - N/A   Clear
7:35 PM 37.4 °F 31.4 °F 24.8 °F 60% 30.00 in 10.0 mi SSE 8.1 mph - N/A   Clear
7:55 PM 37.4 °F 32.1 °F 24.8 °F 60% 30.00 in 10.0 mi South 6.9 mph - N/A   Clear
8:15 PM 35.6 °F 28.6 °F 24.8 °F 65% 29.99 in 10.0 mi South 9.2 mph - N/A   Clear
8:35 PM 35.6 °F 29.2 °F 24.8 °F 65% 29.98 in 10.0 mi South 8.1 mph - N/A   Clear
8:55 PM 35.6 °F 28.6 °F 26.6 °F 70% 29.98 in 10.0 mi SSW 9.2 mph - N/A   Clear
9:15 PM 33.8 °F 26.4 °F 28.4 °F 81% 29.97 in 10.0 mi SSW 9.2 mph - N/A   Clear
9:35 PM 32.0 °F 23.6 °F 26.6 °F 80% 29.96 in 10.0 mi South 10.4 mph - N/A   Clear
9:55 PM 32.0 °F 24.8 °F 26.6 °F 80% 29.95 in 10.0 mi South 8.1 mph - N/A   Clear
10:15 PM 32.0 °F 24.2 °F 26.6 °F 80% 29.94 in 10.0 mi SSW 9.2 mph - N/A   Clear
10:35 PM 32.0 °F 23.6 °F 26.6 °F 80% 29.93 in 10.0 mi South 10.4 mph - N/A   Clear
10:55 PM 32.0 °F 23.6 °F 26.6 °F 80% 29.92 in 10.0 mi South 10.4 mph - N/A   Clear
11:15 PM 32.0 °F 24.2 °F 24.8 °F 75% 29.91 in 10.0 mi South 9.2 mph - N/A   Clear
11:35 PM 33.8 °F 25.8 °F 24.8 °F 70% 29.90 in 10.0 mi South 10.4 mph - N/A   Clear
11:55 PM 32.0 °F 24.8 °F 24.8 °F 75% 29.89 in 10.0 mi South 8.1 mph - N/A   Clear